Temp
66 65 63 60 58 57 56 55 54 54 55 56 55 55 55 55 54 54 55 55 54 55 55 55 55 55 54 55 54 54 54 53 53 53 52 52 52 52 52 51 51 51 50 50 50 50 49 49 49 50 50 50 49 49 49 49 49 49 49 49 49 49 49 49 49 49 50 50 50
66 62 58 53 53 54 54 53 53 53 54 55 55 55 55 54 54 54 54 55 55 55 55 55 55 54 54 55 54 54 54 53 53 53 52 52 52 51 51 51 50 50 50 50 49 49 49 49 49 49 49 49 49 49 49 49 48 49 49 49 49 49 49 49 49 49 50 50 50
59 57 55 55 55 55 54 53 53 54 54 55 55 54 54 54 54 54 54 55 55 55 55 55 54 54 54 54 54 53 53 53 53 53 52 52 51 51 51 51 51 50 49 49 49 49 49 48 48 48 48 49 48 48 49 49 49 49 48 48 49 49 49 49 49 49 49 49 49
55 55 55 56 55 55 54 53 54 54 54 54 54 54 54 54 54 54 54 54 54 54 54 54 53 53 53 52 53 53 52 52 52 52 51 51 51 51 51 51 50 50 49 49 49 49 49 48 48 48 48 48 47 48 48 49 49 49 48 48 49 49 49 49 49 49 49 49 49
54 54 55 55 55 54 53 53 54 54 54 53 53 53 53 53 53 54 54 53 53 54 54 53 53 52 51 51 52 52 52 52 50 50 51 50 50 50 50 50 50 49 49 49 49 48 48 48 48 48 48 48 48 49 49 49 49 48 48 49 49 49 49 49 49 49 49 49 48
54 54 54 53 53 53 53 53 53 53 53 52 52 52 53 53 53 53 53 53 53 53 52 51 50 50 50 51 51 51 51 51 50 50 50 49 49 49 49 49 49 49 48 48 48 48 48 48 48 48 48 48 48 48 49 49 48 48 47 48 48 48 48 48 48 48 48 48 47
56 55 55 54 53 53 53 53 52 52 52 52 52 52 52 53 53 53 52 52 52 51 51 49 50 50 50 50 50 51 51 50 50 50 49 49 49 49 49 49 49 49 49 48 48 48 48 47 47 47 47 47 47 48 48 48 47 47 46 47 47 48 48 47 47 47 47 46 46
58 57 57 56 55 54 53 52 52 52 52 52 51 52 52 52 52 51 51 51 50 50 50 50 50 50 50 50 50 50 50 50 50 49 49 49 49 48 48 48 48 48 48 48 48 48 47 47 47 47 47 47 47 47 47 47 46 46 46 46 47 47 47 47 47 47 47 46 46
57 57 56 56 55 54 53 52 52 52 52 51 51 51 51 51 50 50 49 49 49 49 50 50 50 50 50 49 49 49 49 49 49 49 49 49 49 49 48 48 48 48 48 48 48 48 47 47 47 47 47 47 47 47 46 46 46 45 45 45 46 46 46 46 46 46 46 46 45
56 56 55 54 54 53 53 52 52 52 52 51 51 51 50 48 49 49 49 49 49 49 49 49 49 49 49 49 49 49 49 49 50 50 50 50 50 50 49 49 49 49 49 48 48 48 48 47 47 46 46 46 46 46 45 46 45 45 45 45 45 45 45 45 46 45 45 45 45
56 55 55 54 53 53 53 52 52 52 52 51 51 51 50 49 49 49 49 50 49 49 49 50 50 50 50 50 50 50 50 50 51 51 51 51 50 50 50 50 50 50 50 49 48 48 47 47 46 46 46 46 46 46 45 45 45 44 44 44 44 44 44 45 45 45 45 45 44
56 55 55 54 54 53 53 53 52 52 52 51 51 51 51 50 50 50 50 50 50 50 50 51 51 51 51 51 51 51 51 52 52 51 51 51 51 51 50 50 50 50 50 49 48 47 47 47 46 46 46 46 45 45 45 45 44 44 44 44 44 43 43 44 44 45 45 45 44
55 55 54 54 54 54 53 52 52 52 52 51 51 51 51 51 51 51 51 50 50 51 51 52 52 52 52 52 52 52 52 52 52 51 51 50 50 50 50 50 50 49 49 48 47 47 47 47 46 46 46 46 45 45 44 45 44 44 44 43 43 43 43 43 44 44 44 44 44
55 55 54 54 54 53 53 52 52 51 51 51 51 51 52 51 51 51 51 51 51 51 51 52 52 51 52 52 52 52 52 52 51 51 50 50 50 49 49 49 49 49 48 47 46 46 47 47 46 46 46 46 45 45 44 44 44 44 43 43 43 43 43 43 44 44 44 43 43
54 54 54 54 53 53 52 52 51 51 51 51 51 51 52 52 52 51 51 50 51 51 51 51 51 51 51 52 52 52 52 51 51 50 50 49 49 49 49 49 49 48 48 47 46 46 46 47 46 46 46 45 45 45 45 44 44 44 44 43 43 43 44 44 44 44 43 43 43
54 54 54 54 53 52 52 51 51 51 51 51 51 51 52 51 51 51 50 50 50 50 50 51 51 51 51 51 51 51 51 50 50 49 49 49 49 48 48 48 48 48 48 48 46 46 45 45 45 45 45 45 45 45 45 45 44 44 44 44 43 43 43 43 43 43 43 42 42
54 54 54 53 53 52 51 51 51 51 51 51 51 51 51 51 51 50 49 49 49 49 49 50 50 50 50 49 50 50 50 49 49 49 48 48 48 48 48 48 48 48 48 47 46 46 46 45 45 44 44 44 44 44 45 44 44 43 43 43 43 43 43 43 43 43 42 42 42
53 53 53 53 52 52 52 52 51 51 51 51 51 51 51 50 50 50 49 49 49 49 49 49 49 49 49 48 48 49 49 49 48 48 48 48 48 48 48 47 47 47 47 47 46 46 46 46 45 44 44 43 43 43 44 43 43 43 43 42 42 42 42 42 43 42 42 42 42
53 53 53 53 52 52 52 52 51 51 51 51 51 51 51 50 50 50 50 49 49 49 48 48 48 48 48 48 48 48 48 48 48 48 48 48 48 48 47 47 47 47 47 47 46 46 45 45 44 44 43 43 43 43 43 42 42 42 42 42 42 42 42 42 42 43 43 42 42
53 53 53 53 53 53 52 52 52 52 51 51 51 51 51 50 50 50 50 50 49 49 48 48 48 48 48 48 47 47 47 47 47 47 48 48 47 47 47 47 47 46 46 46 46 45 45 45 44 43 43 43 42 42 42 42 42 41 41 41 42 42 42 42 43 43 43 43 42
53 53 53 53 53 53 52 52 52 52 51 51 51 50 50 50 50 50 50 49 49 49 48 48 48 47 47 47 47 47 47 47 47 47 47 47 47 47 46 46 46 46 46 45 45 44 44 44 44 43 43 42 42 42 41 41 41 41 41 41 42 42 42 43 43 43 42 42 41
53 53 53 53 53 53 52 52 52 51 51 50 50 49 49 49 49 49 49 49 49 49 48 48 48 47 47 47 47 47 46 46 46 46 46 46 46 46 46 46 45 45 45 45 44 44 44 43 43 43 42 42 42 42 41 41 41 41 41 41 42 42 42 42 42 41 41 40 40
53 53 53 53 53 52 51 52 51 51 50 49 49 49 48 48 49 49 49 49 48 48 48 48 48 47 47 47 47 46 46 45 45 45 45 45 45 45 45 45 45 44 44 44 44 43 43 42 42 42 42 42 42 41 41 40 40 40 40 41 41 41 40 40 40 39 39 38 38
53 53 53 52 52 52 51 51 51 50 50 50 49 49 48 48 48 48 48 48 48 48 47 48 47 47 47 47 47 46 45 45 44 44 44 44 44 44 45 45 44 44 43 43 42 42 42 41 41 42 42 42 41 40 40 40 40 39 39 39 38 38 38 38 37 37 37 37 37
52 52 52 52 52 51 51 50 50 49 49 50 50 49 49 48 48 47 47 47 47 46 46 46 46 46 46 46 46 46 45 44 44 44 43 43 44 44 44 44 43 43 43 42 42 42 42 40 41 41 41 41 40 40 40 40 40 39 38 38 37 37 37 36 37 37 37 37 37
51 51 51 51 51 50 50 49 49 49 49 50 50 50 49 49 48 47 46 46 46 46 46 45 45 44 44 45 45 45 44 44 44 43 43 43 43 42 43 43 43 42 42 43 42 42 41 41 41 40 40 40 40 40 39 39 39 39 38 37 37 36 36 36 36 36 36 37 37
50 50 50 50 50 49 49 49 49 49 49 49 49 49 49 49 49 47 46 45 45 45 45 45 44 42 42 44 44 44 43 44 43 43 43 43 42 42 42 42 42 42 42 42 42 41 41 41 41 40 40 39 38 37 37 37 37 37 37 36 36 36 35 35 35 35 36 36 36
49 49 49 49 48 48 48 48 48 48 49 49 49 49 49 49 48 47 46 45 45 45 44 44 43 43 43 43 43 43 43 43 43 42 42 42 41 41 42 42 42 41 41 42 42 41 41 41 41 40 39 37 37 36 36 36 36 36 36 36 36 35 35 35 35 35 35 35 36
48 48 47 47 47 47 47 48 48 48 48 49 49 48 48 47 47 46 46 46 45 45 44 44 43 43 43 42 42 42 42 42 42 42 42 41 41 41 41 42 42 42 42 42 41 41 41 41 40 40 39 38 36 35 35 36 36 36 36 36 35 35 34 34 34 34 34 35 35
47 47 46 46 46 46 47 47 47 48 48 48 48 47 47 46 46 46 46 46 45 45 44 44 43 42 42 41 41 41 42 42 42 42 41 40 40 40 41 41 41 41 41 41 41 41 41 41 40 39 38 37 35 35 35 35 35 35 35 35 35 34 34 34 34 34 34 34 34
47 46 46 46 46 46 46 47 47 47 47 47 47 47 46 46 46 46 46 46 45 45 44 44 43 42 41 42 42 42 42 42 42 41 41 40 40 40 40 41 40 40 40 41 41 40 40 40 39 38 38 37 35 34 34 34 35 35 34 34 34 34 34 34 34 34 34 34 34
46 46 46 46 46 46 46 47 47 47 46 46 46 46 46 46 45 46 45 45 45 44 44 44 42 42 42 43 42 42 42 41 41 41 40 40 40 40 40 40 40 39 39 40 40 40 39 39 39 38 37 37 35 34 34 34 34 34 34 34 34 34 34 34 34 34 34 34 34
46 46 46 46 46 46 46 46 46 46 45 45 45 45 45 45 45 45 45 45 44 44 43 43 42 42 41 42 42 42 41 40 40 40 40 40 40 39 39 39 39 39 39 40 39 39 39 38 38 38 37 37 35 34 34 34 34 34 34 33 34 34 34 34 34 34 34 34 35
46 46 46 46 46 46 46 46 45 45 44 44 44 44 44 44 44 44 44 44 44 44 43 43 42 42 42 42 41 40 39 39 39 39 39 39 39 39 39 38 38 39 39 39 39 38 38 38 38 37 37 36 35 34 34 34 33 33 33 33 34 34 34 35 35 35 35 35 35
46 46 46 46 46 46 45 45 45 44 44 44 43 44 44 44 44 44 44 44 43 43 43 42 42 42 42 41 40 39 38 38 38 38 38 38 38 38 38 38 38 39 39 39 38 38 38 38 37 37 37 36 34 34 33 33 33 33 33 33 34 34 35 35 35 35 36 36 36
47 45 44 44 45 45 45 45 45 44 44 42 41 42 43 44 44 44 44 43 42 42 42 42 42 41 41 40 39 38 38 38 38 38 37 37 37 37 37 37 38 38 38 38 38 38 37 37 37 37 36 35 34 34 34 33 33 33 33 33 34 34 35 35 36 36 36 36 36
47 45 44 44 45 45 45 44 44 44 43 42 41 42 43 43 44 44 43 42 42 41 41 41 41 40 40 39 38 38 38 39 38 37 36 36 36 36 36 36 37 37 37 37 37 37 37 37 37 36 36 34 34 34 34 33 33 33 33 33 34 34 35 35 36 36 36 36 36
48 46 45 44 45 45 45 44 44 43 43 43 43 43 43 43 43 43 42 41 41 41 40 40 40 40 39 39 38 38 38 38 37 36 36 35 35 35 35 35 35 35 35 36 37 37 37 37 36 36 35 34 34 34 34 33 33 33 33 33 34 34 35 36 36 36 36 36 37
49 48 47 46 45 45 44 44 44 43 43 43 43 43 43 43 43 42 42 41 41 40 40 40 40 40 39 39 38 37 37 37 37 36 35 35 35 35 35 34 34 34 35 36 36 36 36 37 37 36 36 35 34 34 34 33 33 33 33 33 34 34 35 36 36 36 36 36 37
48 48 47 46 45 45 45 45 44 44 43 43 43 43 43 42 42 42 42 41 41 41 40 40 40 40 39 38 38 37 36 37 37 36 35 35 35 35 35 33 33 33 34 35 36 36 37 37 37 37 36 35 35 35 34 33 33 33 33 33 34 34 34 35 35 35 35 35 36
48 48 47 46 46 46 45 45 45 44 43 43 43 42 42 42 41 41 41 41 41 41 40 40 40 39 39 38 38 37 36 36 37 36 35 34 34 35 34 33 33 33 34 35 36 36 37 37 37 37 37 36 35 35 35 34 33 32 32 33 33 33 34 34 34 34 34 34 35
MSLP
1010.20 1010.40 1010.68 1011.00 1011.40 1011.80 1012.20 1012.48 1012.76 1012.96 1013.16 1013.36 1013.60 1013.76 1013.96 1014.16 1014.36 1014.48 1014.64 1014.80 1015.04 1015.20 1015.36 1015.48 1015.60 1015.72 1015.76 1015.88 1015.92 1015.96 1016.00 1016.08 1016.20 1016.36 1016.48 1016.56 1016.64 1016.64 1016.64 1016.60 1016.60 1016.60 1016.56 1016.56 1016.56 1016.52 1016.48 1016.48 1016.44 1016.40 1016.36 1016.32 1016.28 1016.20 1016.20 1016.16 1016.12 1016.08 1016.00 1015.92 1015.88 1015.80 1015.76 1015.68 1015.64 1015.56 1015.52 1015.48 1015.36
1009.92 1010.32 1010.76 1011.20 1011.56 1011.96 1012.36 1012.68 1012.88 1013.04 1013.24 1013.48 1013.72 1013.92 1014.08 1014.24 1014.44 1014.60 1014.76 1014.92 1015.12 1015.32 1015.48 1015.64 1015.72 1015.80 1015.92 1015.96 1016.04 1016.08 1016.12 1016.20 1016.36 1016.48 1016.56 1016.64 1016.64 1016.64 1016.64 1016.60 1016.56 1016.52 1016.48 1016.48 1016.40 1016.36 1016.36 1016.36 1016.32 1016.28 1016.20 1016.20 1016.20 1016.12 1016.08 1016.04 1016.00 1015.96 1015.92 1015.80 1015.76 1015.68 1015.64 1015.56 1015.48 1015.40 1015.36 1015.32 1015.20
1010.12 1010.60 1010.96 1011.20 1011.52 1011.92 1012.36 1012.68 1012.92 1013.08 1013.32 1013.56 1013.80 1014.00 1014.16 1014.36 1014.52 1014.68 1014.88 1015.04 1015.20 1015.40 1015.56 1015.68 1015.80 1015.92 1016.08 1016.12 1016.20 1016.28 1016.36 1016.44 1016.52 1016.60 1016.64 1016.64 1016.64 1016.64 1016.60 1016.52 1016.48 1016.44 1016.36 1016.36 1016.28 1016.28 1016.24 1016.20 1016.20 1016.20 1016.12 1016.08 1016.08 1016.00 1015.92 1015.88 1015.84 1015.80 1015.76 1015.68 1015.60 1015.56 1015.48 1015.44 1015.36 1015.28 1015.24 1015.20 1015.08
1010.40 1010.72 1011.00 1011.24 1011.52 1011.88 1012.32 1012.64 1012.92 1013.12 1013.36 1013.64 1013.88 1014.08 1014.24 1014.48 1014.64 1014.76 1014.96 1015.12 1015.28 1015.44 1015.64 1015.80 1016.00 1016.16 1016.32 1016.40 1016.48 1016.52 1016.56 1016.64 1016.64 1016.64 1016.64 1016.60 1016.60 1016.52 1016.48 1016.44 1016.40 1016.36 1016.28 1016.20 1016.20 1016.16 1016.12 1016.08 1016.08 1016.08 1016.04 1015.96 1015.96 1015.92 1015.84 1015.76 1015.76 1015.68 1015.64 1015.52 1015.48 1015.44 1015.36 1015.28 1015.20 1015.20 1015.16 1015.04 1014.92
1010.64 1010.80 1011.04 1011.36 1011.60 1011.92 1012.28 1012.64 1012.92 1013.16 1013.40 1013.68 1013.92 1014.16 1014.36 1014.56 1014.76 1014.92 1015.04 1015.20 1015.36 1015.60 1015.80 1016.08 1016.28 1016.44 1016.56 1016.64 1016.64 1016.64 1016.64 1016.64 1016.64 1016.64 1016.60 1016.48 1016.48 1016.44 1016.40 1016.36 1016.32 1016.24 1016.20 1016.12 1016.08 1016.08 1016.04 1016.00 1016.00 1015.92 1015.92 1015.84 1015.84 1015.76 1015.68 1015.64 1015.64 1015.56 1015.48 1015.40 1015.36 1015.32 1015.28 1015.20 1015.12 1015.04 1015.04 1014.92 1014.84
1010.84 1011.04 1011.24 1011.52 1011.76 1012.04 1012.36 1012.68 1012.92 1013.20 1013.48 1013.76 1014.00 1014.20 1014.44 1014.64 1014.76 1014.92 1015.04 1015.32 1015.60 1015.88 1016.16 1016.36 1016.56 1016.64 1016.72 1016.72 1016.72 1016.68 1016.64 1016.64 1016.60 1016.52 1016.44 1016.36 1016.36 1016.36 1016.32 1016.24 1016.20 1016.16 1016.08 1016.04 1016.00 1015.96 1015.92 1015.92 1015.88 1015.80 1015.76 1015.72 1015.68 1015.64 1015.56 1015.48 1015.48 1015.44 1015.36 1015.28 1015.24 1015.20 1015.20 1015.08 1015.04 1014.96 1014.92 1014.80 1014.76
1011.04 1011.28 1011.48 1011.72 1011.96 1012.20 1012.48 1012.76 1013.04 1013.32 1013.56 1013.80 1014.08 1014.28 1014.48 1014.64 1014.76 1015.00 1015.28 1015.64 1015.92 1016.20 1016.40 1016.56 1016.68 1016.72 1016.72 1016.72 1016.68 1016.64 1016.56 1016.48 1016.44 1016.36 1016.32 1016.28 1016.24 1016.24 1016.20 1016.12 1016.08 1016.04 1015.96 1015.92 1015.84 1015.80 1015.80 1015.76 1015.76 1015.64 1015.64 1015.60 1015.52 1015.48 1015.40 1015.36 1015.36 1015.32 1015.24 1015.20 1015.12 1015.04 1015.04 1015.00 1014.92 1014.84 1014.76 1014.72 1014.68
1011.20 1011.40 1011.64 1011.92 1012.12 1012.36 1012.60 1012.88 1013.16 1013.40 1013.68 1013.92 1014.12 1014.32 1014.48 1014.68 1014.92 1015.24 1015.64 1015.96 1016.24 1016.48 1016.60 1016.64 1016.68 1016.68 1016.64 1016.64 1016.60 1016.52 1016.48 1016.36 1016.28 1016.24 1016.20 1016.20 1016.12 1016.08 1016.04 1016.00 1015.92 1015.88 1015.80 1015.76 1015.72 1015.68 1015.64 1015.64 1015.60 1015.52 1015.48 1015.44 1015.36 1015.32 1015.24 1015.24 1015.20 1015.16 1015.12 1015.08 1015.00 1014.92 1014.92 1014.88 1014.80 1014.76 1014.68 1014.64 1014.56
1011.32 1011.52 1011.76 1012.04 1012.24 1012.48 1012.72 1012.96 1013.20 1013.48 1013.76 1013.96 1014.16 1014.36 1014.56 1014.84 1015.20 1015.64 1015.96 1016.24 1016.48 1016.60 1016.64 1016.64 1016.64 1016.60 1016.56 1016.48 1016.44 1016.36 1016.28 1016.20 1016.16 1016.12 1016.08 1016.04 1016.00 1015.92 1015.92 1015.80 1015.76 1015.68 1015.64 1015.56 1015.52 1015.48 1015.44 1015.40 1015.40 1015.36 1015.32 1015.24 1015.20 1015.16 1015.08 1015.04 1015.04 1015.04 1014.96 1014.92 1014.84 1014.76 1014.76 1014.76 1014.68 1014.64 1014.56 1014.52 1014.48
1011.28 1011.56 1011.88 1012.16 1012.36 1012.60 1012.80 1013.04 1013.28 1013.48 1013.76 1013.96 1014.20 1014.44 1014.76 1015.08 1015.48 1015.84 1016.12 1016.36 1016.48 1016.52 1016.52 1016.48 1016.48 1016.44 1016.36 1016.32 1016.24 1016.20 1016.08 1016.04 1016.00 1015.96 1015.92 1015.84 1015.76 1015.72 1015.64 1015.60 1015.52 1015.48 1015.40 1015.36 1015.32 1015.28 1015.24 1015.20 1015.20 1015.12 1015.08 1015.04 1015.04 1014.96 1014.92 1014.92 1014.92 1014.88 1014.84 1014.76 1014.72 1014.64 1014.64 1014.60 1014.56 1014.52 1014.48 1014.40 1014.36
1011.28 1011.60 1011.92 1012.20 1012.48 1012.72 1012.92 1013.12 1013.36 1013.52 1013.76 1014.04 1014.32 1014.60 1014.92 1015.28 1015.56 1015.84 1016.08 1016.20 1016.28 1016.32 1016.28 1016.24 1016.24 1016.20 1016.16 1016.08 1016.00 1015.96 1015.92 1015.84 1015.76 1015.72 1015.64 1015.64 1015.52 1015.48 1015.40 1015.36 1015.28 1015.24 1015.20 1015.16 1015.12 1015.12 1015.08 1015.04 1015.04 1014.96 1014.92 1014.92 1014.88 1014.84 1014.80 1014.76 1014.76 1014.72 1014.68 1014.64 1014.60 1014.52 1014.48 1014.44 1014.44 1014.40 1014.36 1014.28 1014.20
1011.36 1011.64 1011.92 1012.28 1012.56 1012.76 1013.00 1013.16 1013.36 1013.56 1013.76 1014.08 1014.36 1014.68 1014.96 1015.24 1015.48 1015.68 1015.84 1015.96 1016.04 1016.04 1016.00 1016.00 1015.92 1015.92 1015.88 1015.80 1015.76 1015.72 1015.64 1015.60 1015.52 1015.48 1015.44 1015.40 1015.36 1015.28 1015.20 1015.20 1015.16 1015.08 1015.04 1015.00 1015.00 1015.00 1014.96 1014.92 1014.92 1014.84 1014.80 1014.76 1014.72 1014.72 1014.68 1014.64 1014.64 1014.56 1014.48 1014.48 1014.44 1014.40 1014.36 1014.32 1014.28 1014.24 1014.20 1014.12 1014.08
1011.52 1011.76 1012.04 1012.28 1012.60 1012.80 1013.04 1013.20 1013.40 1013.60 1013.88 1014.16 1014.44 1014.68 1014.92 1015.12 1015.36 1015.48 1015.60 1015.68 1015.76 1015.76 1015.76 1015.72 1015.72 1015.68 1015.64 1015.60 1015.56 1015.48 1015.44 1015.44 1015.40 1015.36 1015.32 1015.24 1015.20 1015.20 1015.12 1015.04 1015.04 1014.96 1014.92 1014.92 1014.92 1014.92 1014.88 1014.80 1014.76 1014.72 1014.64 1014.64 1014.60 1014.56 1014.52 1014.48 1014.48 1014.40 1014.36 1014.32 1014.28 1014.24 1014.20 1014.12 1014.12 1014.08 1014.04 1014.00 1013.92
1011.64 1011.88 1012.08 1012.32 1012.60 1012.84 1013.04 1013.28 1013.48 1013.68 1013.92 1014.20 1014.44 1014.64 1014.80 1015.00 1015.20 1015.32 1015.40 1015.48 1015.52 1015.56 1015.56 1015.56 1015.56 1015.52 1015.48 1015.48 1015.44 1015.36 1015.36 1015.32 1015.28 1015.24 1015.20 1015.16 1015.12 1015.08 1015.04 1014.96 1014.92 1014.88 1014.88 1014.84 1014.80 1014.76 1014.76 1014.64 1014.64 1014.56 1014.48 1014.44 1014.40 1014.36 1014.32 1014.32 1014.32 1014.24 1014.20 1014.16 1014.08 1014.04 1014.00 1013.92 1013.92 1013.92 1013.88 1013.80 1013.76
1011.76 1011.96 1012.20 1012.40 1012.64 1012.92 1013.16 1013.36 1013.56 1013.76 1013.96 1014.20 1014.36 1014.56 1014.76 1014.92 1015.04 1015.16 1015.28 1015.36 1015.36 1015.44 1015.48 1015.48 1015.44 1015.40 1015.36 1015.36 1015.28 1015.24 1015.24 1015.20 1015.20 1015.16 1015.12 1015.04 1015.04 1015.00 1014.92 1014.88 1014.80 1014.76 1014.72 1014.68 1014.64 1014.64 1014.60 1014.52 1014.48 1014.40 1014.36 1014.24 1014.20 1014.16 1014.08 1014.08 1014.08 1014.04 1014.00 1013.92 1013.88 1013.84 1013.76 1013.76 1013.72 1013.72 1013.64 1013.64 1013.60
1011.92 1012.08 1012.28 1012.48 1012.76 1013.00 1013.24 1013.44 1013.64 1013.80 1014.00 1014.20 1014.36 1014.48 1014.64 1014.84 1014.96 1015.08 1015.20 1015.28 1015.32 1015.36 1015.40 1015.40 1015.36 1015.32 1015.24 1015.24 1015.20 1015.20 1015.20 1015.16 1015.16 1015.08 1015.04 1015.00 1014.92 1014.92 1014.84 1014.76 1014.72 1014.64 1014.60 1014.52 1014.48 1014.48 1014.44 1014.36 1014.32 1014.24 1014.20 1014.08 1014.04 1013.96 1013.92 1013.88 1013.84 1013.80 1013.76 1013.76 1013.68 1013.64 1013.56 1013.56 1013.56 1013.52 1013.48 1013.48 1013.44
1012.04 1012.20 1012.36 1012.64 1012.88 1013.12 1013.32 1013.48 1013.64 1013.84 1014.00 1014.16 1014.32 1014.48 1014.64 1014.76 1014.92 1015.04 1015.16 1015.20 1015.28 1015.32 1015.32 1015.24 1015.24 1015.20 1015.20 1015.16 1015.16 1015.16 1015.12 1015.08 1015.08 1015.04 1014.96 1014.92 1014.84 1014.76 1014.72 1014.64 1014.60 1014.52 1014.48 1014.40 1014.36 1014.32 1014.24 1014.20 1014.12 1014.08 1014.04 1013.96 1013.92 1013.84 1013.76 1013.72 1013.68 1013.64 1013.60 1013.56 1013.48 1013.48 1013.44 1013.40 1013.40 1013.36 1013.36 1013.36 1013.32
1012.16 1012.36 1012.52 1012.76 1012.96 1013.16 1013.36 1013.48 1013.64 1013.84 1014.00 1014.12 1014.28 1014.44 1014.60 1014.76 1014.84 1014.96 1015.04 1015.12 1015.16 1015.20 1015.16 1015.16 1015.16 1015.16 1015.12 1015.08 1015.08 1015.04 1015.04 1015.00 1014.96 1014.92 1014.84 1014.76 1014.72 1014.64 1014.60 1014.48 1014.44 1014.40 1014.36 1014.28 1014.20 1014.16 1014.08 1014.00 1013.92 1013.92 1013.92 1013.84 1013.76 1013.72 1013.64 1013.64 1013.56 1013.48 1013.44 1013.40 1013.36 1013.36 1013.32 1013.28 1013.24 1013.24 1013.24 1013.20 1013.20
1012.28 1012.44 1012.64 1012.80 1013.00 1013.20 1013.36 1013.48 1013.68 1013.84 1013.96 1014.08 1014.20 1014.36 1014.52 1014.64 1014.76 1014.88 1014.92 1015.00 1015.04 1015.04 1015.04 1015.04 1015.04 1015.04 1015.04 1015.00 1014.96 1014.96 1014.92 1014.88 1014.80 1014.76 1014.68 1014.64 1014.60 1014.52 1014.44 1014.36 1014.32 1014.24 1014.20 1014.12 1014.08 1014.00 1013.92 1013.88 1013.80 1013.80 1013.76 1013.68 1013.64 1013.60 1013.52 1013.48 1013.40 1013.36 1013.32 1013.28 1013.20 1013.20 1013.20 1013.16 1013.12 1013.08 1013.08 1013.04 1013.00
1012.36 1012.48 1012.64 1012.84 1013.04 1013.20 1013.36 1013.48 1013.64 1013.80 1013.92 1014.04 1014.20 1014.36 1014.48 1014.60 1014.72 1014.80 1014.84 1014.88 1014.88 1014.92 1014.92 1014.92 1014.92 1014.92 1014.92 1014.88 1014.84 1014.80 1014.76 1014.72 1014.64 1014.60 1014.52 1014.48 1014.44 1014.36 1014.32 1014.24 1014.16 1014.12 1014.08 1014.00 1013.92 1013.88 1013.80 1013.76 1013.68 1013.64 1013.64 1013.56 1013.48 1013.44 1013.36 1013.32 1013.24 1013.20 1013.16 1013.12 1013.08 1013.04 1013.00 1013.00 1012.92 1012.92 1012.88 1012.84 1012.84
1012.40 1012.56 1012.68 1012.88 1013.04 1013.20 1013.36 1013.48 1013.64 1013.76 1013.92 1014.08 1014.20 1014.36 1014.48 1014.60 1014.68 1014.76 1014.76 1014.76 1014.76 1014.80 1014.84 1014.84 1014.84 1014.80 1014.76 1014.72 1014.68 1014.64 1014.56 1014.52 1014.48 1014.44 1014.36 1014.32 1014.28 1014.20 1014.16 1014.12 1014.04 1014.00 1013.92 1013.88 1013.76 1013.76 1013.68 1013.64 1013.56 1013.52 1013.48 1013.40 1013.36 1013.28 1013.20 1013.16 1013.12 1013.04 1012.96 1012.92 1012.88 1012.84 1012.76 1012.76 1012.76 1012.76 1012.76 1012.80 1012.84
1012.48 1012.64 1012.76 1012.92 1013.04 1013.20 1013.36 1013.48 1013.64 1013.76 1013.92 1014.12 1014.28 1014.40 1014.52 1014.60 1014.64 1014.68 1014.72 1014.72 1014.76 1014.76 1014.76 1014.76 1014.72 1014.64 1014.64 1014.56 1014.52 1014.48 1014.44 1014.36 1014.36 1014.36 1014.28 1014.20 1014.16 1014.08 1014.04 1013.96 1013.92 1013.88 1013.80 1013.72 1013.64 1013.56 1013.52 1013.48 1013.40 1013.36 1013.28 1013.20 1013.12 1013.04 1013.00 1012.92 1012.92 1012.84 1012.76 1012.72 1012.64 1012.60 1012.60 1012.56 1012.64 1012.68 1012.76 1012.80 1012.84
1012.56 1012.72 1012.88 1013.00 1013.12 1013.28 1013.44 1013.52 1013.68 1013.88 1014.08 1014.20 1014.36 1014.44 1014.48 1014.56 1014.56 1014.60 1014.64 1014.64 1014.64 1014.64 1014.64 1014.64 1014.56 1014.52 1014.48 1014.44 1014.36 1014.36 1014.32 1014.24 1014.20 1014.20 1014.12 1014.08 1014.00 1013.92 1013.88 1013.84 1013.76 1013.68 1013.64 1013.52 1013.44 1013.40 1013.36 1013.28 1013.20 1013.16 1013.08 1013.04 1012.92 1012.88 1012.84 1012.76 1012.76 1012.72 1012.64 1012.56 1012.48 1012.48 1012.48 1012.48 1012.56 1012.64 1012.64 1012.68 1012.72
1012.68 1012.80 1012.96 1013.04 1013.20 1013.36 1013.48 1013.64 1013.84 1014.04 1014.20 1014.32 1014.36 1014.40 1014.44 1014.48 1014.48 1014.48 1014.48 1014.56 1014.56 1014.56 1014.52 1014.48 1014.44 1014.40 1014.36 1014.28 1014.24 1014.20 1014.20 1014.12 1014.08 1014.00 1013.96 1013.92 1013.84 1013.76 1013.72 1013.64 1013.56 1013.48 1013.44 1013.36 1013.28 1013.20 1013.16 1013.12 1013.04 1012.96 1012.92 1012.88 1012.80 1012.76 1012.72 1012.64 1012.64 1012.60 1012.52 1012.48 1012.48 1012.44 1012.44 1012.44 1012.48 1012.52 1012.56 1012.56 1012.60
1012.80 1012.92 1013.04 1013.20 1013.32 1013.48 1013.64 1013.80 1013.96 1014.12 1014.24 1014.32 1014.36 1014.36 1014.36 1014.36 1014.36 1014.40 1014.44 1014.48 1014.44 1014.40 1014.36 1014.36 1014.32 1014.24 1014.20 1014.20 1014.12 1014.08 1014.04 1014.00 1013.92 1013.88 1013.76 1013.72 1013.64 1013.60 1013.52 1013.44 1013.36 1013.28 1013.20 1013.12 1013.04 1012.96 1012.92 1012.92 1012.88 1012.80 1012.72 1012.64 1012.64 1012.56 1012.52 1012.48 1012.48 1012.48 1012.44 1012.44 1012.40 1012.40 1012.36 1012.36 1012.36 1012.40 1012.44 1012.48 1012.48
1012.92 1013.04 1013.16 1013.32 1013.48 1013.64 1013.76 1013.96 1014.08 1014.20 1014.24 1014.28 1014.24 1014.28 1014.28 1014.28 1014.32 1014.36 1014.36 1014.36 1014.36 1014.32 1014.24 1014.20 1014.16 1014.12 1014.08 1014.08 1014.00 1013.96 1013.92 1013.84 1013.76 1013.68 1013.60 1013.52 1013.44 1013.36 1013.36 1013.24 1013.16 1013.04 1012.96 1012.88 1012.80 1012.76 1012.72 1012.64 1012.64 1012.60 1012.52 1012.48 1012.44 1012.40 1012.36 1012.36 1012.32 1012.36 1012.36 1012.36 1012.36 1012.36 1012.36 1012.32 1012.28 1012.28 1012.32 1012.36 1012.36
1013.08 1013.20 1013.36 1013.48 1013.64 1013.76 1013.92 1014.08 1014.16 1014.20 1014.20 1014.20 1014.20 1014.20 1014.20 1014.20 1014.24 1014.24 1014.28 1014.24 1014.20 1014.20 1014.12 1014.08 1014.08 1014.04 1013.96 1013.92 1013.84 1013.76 1013.72 1013.68 1013.60 1013.48 1013.40 1013.36 1013.24 1013.16 1013.04 1012.96 1012.92 1012.80 1012.76 1012.64 1012.60 1012.52 1012.48 1012.44 1012.40 1012.40 1012.40 1012.36 1012.36 1012.40 1012.40 1012.36 1012.32 1012.36 1012.36 1012.32 1012.32 1012.32 1012.28 1012.20 1012.12 1012.08 1012.08 1012.04 1012.00
1013.32 1013.40 1013.52 1013.64 1013.76 1013.92 1014.04 1014.12 1014.16 1014.16 1014.16 1014.16 1014.20 1014.20 1014.20 1014.16 1014.20 1014.20 1014.20 1014.12 1014.08 1014.04 1014.00 1013.92 1013.92 1013.84 1013.80 1013.76 1013.68 1013.64 1013.56 1013.48 1013.40 1013.36 1013.20 1013.16 1013.04 1012.96 1012.84 1012.76 1012.68 1012.60 1012.48 1012.44 1012.36 1012.36 1012.32 1012.24 1012.24 1012.28 1012.32 1012.36 1012.36 1012.36 1012.36 1012.36 1012.32 1012.28 1012.24 1012.20 1012.20 1012.16 1012.08 1012.04 1011.96 1011.92 1011.84 1011.76 1011.68
1013.48 1013.60 1013.68 1013.76 1013.92 1014.00 1014.08 1014.12 1014.12 1014.12 1014.12 1014.12 1014.12 1014.12 1014.12 1014.12 1014.12 1014.12 1014.08 1014.04 1013.96 1013.92 1013.88 1013.76 1013.76 1013.68 1013.64 1013.64 1013.56 1013.48 1013.40 1013.32 1013.24 1013.16 1013.04 1012.92 1012.84 1012.76 1012.64 1012.52 1012.48 1012.36 1012.32 1012.24 1012.20 1012.20 1012.20 1012.16 1012.16 1012.20 1012.24 1012.32 1012.36 1012.36 1012.36 1012.28 1012.20 1012.16 1012.08 1012.04 1012.00 1011.92 1011.92 1011.84 1011.76 1011.68 1011.60 1011.48 1011.44
1013.56 1013.64 1013.76 1013.84 1013.92 1014.00 1014.04 1014.08 1014.08 1014.08 1014.08 1014.08 1014.08 1014.08 1014.08 1014.08 1014.08 1014.04 1013.92 1013.88 1013.80 1013.76 1013.72 1013.64 1013.64 1013.64 1013.60 1013.52 1013.44 1013.36 1013.24 1013.16 1013.04 1012.92 1012.84 1012.76 1012.68 1012.60 1012.48 1012.40 1012.36 1012.28 1012.20 1012.16 1012.12 1012.08 1012.08 1012.04 1012.08 1012.12 1012.16 1012.20 1012.24 1012.24 1012.20 1012.20 1012.08 1012.00 1011.96 1011.92 1011.88 1011.80 1011.76 1011.68 1011.60 1011.48 1011.36 1011.32 1011.20
1013.60 1013.68 1013.76 1013.84 1013.92 1013.96 1013.96 1013.96 1014.00 1014.00 1014.00 1014.04 1014.04 1014.04 1014.00 1014.00 1013.92 1013.92 1013.84 1013.76 1013.68 1013.64 1013.60 1013.56 1013.52 1013.52 1013.48 1013.36 1013.28 1013.20 1013.08 1012.96 1012.84 1012.76 1012.68 1012.64 1012.56 1012.44 1012.36 1012.28 1012.20 1012.16 1012.08 1012.08 1012.00 1011.96 1011.96 1011.96 1012.00 1012.00 1012.04 1012.08 1012.12 1012.12 1012.08 1012.04 1011.96 1011.92 1011.84 1011.76 1011.72 1011.64 1011.56 1011.48 1011.36 1011.20 1011.12 1011.04 1010.92
1013.60 1013.68 1013.72 1013.76 1013.80 1013.84 1013.88 1013.88 1013.92 1013.92 1013.92 1013.96 1013.96 1013.96 1013.92 1013.88 1013.80 1013.76 1013.68 1013.64 1013.60 1013.56 1013.52 1013.48 1013.44 1013.36 1013.32 1013.20 1013.12 1013.00 1012.92 1012.80 1012.72 1012.64 1012.56 1012.52 1012.44 1012.36 1012.24 1012.20 1012.08 1012.08 1012.00 1011.92 1011.88 1011.84 1011.84 1011.88 1011.88 1011.88 1011.92 1011.92 1011.92 1011.96 1011.92 1011.92 1011.80 1011.76 1011.64 1011.56 1011.48 1011.36 1011.28 1011.20 1011.04 1010.92 1010.80 1010.72 1010.60
1013.48 1013.56 1013.64 1013.68 1013.68 1013.68 1013.72 1013.80 1013.84 1013.88 1013.92 1013.92 1013.92 1013.88 1013.80 1013.76 1013.64 1013.64 1013.56 1013.52 1013.48 1013.48 1013.40 1013.36 1013.32 1013.24 1013.16 1013.04 1012.96 1012.84 1012.76 1012.72 1012.64 1012.52 1012.48 1012.40 1012.32 1012.24 1012.16 1012.08 1012.00 1011.92 1011.88 1011.84 1011.80 1011.76 1011.76 1011.76 1011.76 1011.76 1011.76 1011.80 1011.80 1011.80 1011.76 1011.72 1011.64 1011.52 1011.40 1011.28 1011.16 1011.04 1010.92 1010.84 1010.72 1010.60 1010.48 1010.36 1010.24
1013.44 1013.48 1013.52 1013.52 1013.56 1013.64 1013.68 1013.76 1013.80 1013.80 1013.80 1013.76 1013.76 1013.72 1013.64 1013.60 1013.52 1013.48 1013.48 1013.40 1013.40 1013.36 1013.32 1013.24 1013.20 1013.12 1013.04 1012.92 1012.88 1012.76 1012.68 1012.60 1012.48 1012.44 1012.36 1012.24 1012.20 1012.16 1012.08 1011.92 1011.88 1011.80 1011.76 1011.76 1011.68 1011.64 1011.64 1011.64 1011.64 1011.64 1011.64 1011.64 1011.68 1011.64 1011.56 1011.48 1011.36 1011.20 1011.08 1010.92 1010.76 1010.68 1010.60 1010.48 1010.32 1010.20 1010.08 1009.96 1009.84
1013.32 1013.36 1013.40 1013.44 1013.52 1013.64 1013.68 1013.72 1013.72 1013.72 1013.68 1013.64 1013.64 1013.56 1013.48 1013.48 1013.44 1013.36 1013.36 1013.28 1013.28 1013.20 1013.16 1013.12 1013.04 1013.00 1012.92 1012.80 1012.76 1012.68 1012.60 1012.48 1012.36 1012.32 1012.24 1012.20 1012.12 1012.04 1011.92 1011.80 1011.76 1011.64 1011.64 1011.64 1011.60 1011.60 1011.56 1011.52 1011.52 1011.52 1011.48 1011.52 1011.48 1011.44 1011.32 1011.20 1011.04 1010.92 1010.76 1010.56 1010.40 1010.28 1010.16 1010.04 1009.92 1009.76 1009.64 1009.52 1009.40
1013.08 1013.20 1013.32 1013.40 1013.48 1013.56 1013.60 1013.60 1013.60 1013.56 1013.56 1013.52 1013.48 1013.44 1013.36 1013.36 1013.28 1013.24 1013.20 1013.20 1013.20 1013.16 1013.08 1013.04 1012.96 1012.88 1012.76 1012.68 1012.64 1012.56 1012.48 1012.40 1012.32 1012.20 1012.16 1012.08 1012.04 1011.92 1011.80 1011.68 1011.60 1011.56 1011.52 1011.56 1011.52 1011.48 1011.48 1011.44 1011.40 1011.36 1011.36 1011.32 1011.20 1011.12 1011.00 1010.84 1010.68 1010.48 1010.36 1010.20 1010.00 1009.88 1009.76 1009.60 1009.48 1009.36 1009.20 1009.12 1009.00
1012.92 1013.08 1013.24 1013.36 1013.40 1013.44 1013.44 1013.44 1013.48 1013.44 1013.36 1013.36 1013.36 1013.32 1013.24 1013.20 1013.16 1013.20 1013.20 1013.16 1013.12 1013.08 1013.00 1012.92 1012.88 1012.76 1012.68 1012.60 1012.52 1012.44 1012.36 1012.28 1012.20 1012.12 1012.08 1011.96 1011.92 1011.84 1011.72 1011.64 1011.56 1011.48 1011.48 1011.48 1011.48 1011.40 1011.36 1011.32 1011.20 1011.16 1011.12 1011.04 1010.92 1010.76 1010.64 1010.48 1010.32 1010.16 1009.96 1009.80 1009.64 1009.48 1009.36 1009.20 1009.04 1008.92 1008.76 1008.64 1008.52
1012.92 1013.04 1013.16 1013.24 1013.28 1013.28 1013.32 1013.36 1013.36 1013.32 1013.24 1013.20 1013.20 1013.16 1013.16 1013.16 1013.12 1013.12 1013.16 1013.12 1013.08 1013.04 1012.92 1012.84 1012.76 1012.64 1012.56 1012.48 1012.40 1012.32 1012.20 1012.16 1012.08 1012.08 1011.96 1011.88 1011.80 1011.76 1011.68 1011.60 1011.48 1011.48 1011.48 1011.40 1011.36 1011.28 1011.20 1011.12 1011.00 1010.92 1010.80 1010.76 1010.64 1010.48 1010.32 1010.12 1009.96 1009.76 1009.60 1009.44 1009.24 1009.04 1008.92 1008.80 1008.64 1008.48 1008.36 1008.20 1008.08
1012.96 1013.04 1013.12 1013.16 1013.20 1013.20 1013.20 1013.24 1013.20 1013.20 1013.16 1013.12 1013.12 1013.12 1013.12 1013.16 1013.12 1013.12 1013.08 1013.04 1013.04 1012.92 1012.84 1012.76 1012.64 1012.48 1012.44 1012.36 1012.28 1012.20 1012.08 1012.08 1011.96 1011.92 1011.88 1011.80 1011.76 1011.68 1011.64 1011.64 1011.48 1011.44 1011.40 1011.36 1011.24 1011.12 1011.04 1010.88 1010.72 1010.60 1010.48 1010.44 1010.28 1010.12 1009.96 1009.76 1009.60 1009.40 1009.24 1009.04 1008.84 1008.68 1008.52 1008.40 1008.24 1008.08 1007.92 1007.76 1007.64
1013.04 1013.04 1013.08 1013.12 1013.16 1013.16 1013.16 1013.12 1013.08 1013.04 1013.04 1013.08 1013.08 1013.12 1013.12 1013.12 1013.12 1013.08 1013.04 1012.96 1012.92 1012.84 1012.72 1012.64 1012.48 1012.40 1012.32 1012.24 1012.20 1012.08 1012.00 1011.92 1011.84 1011.80 1011.76 1011.76 1011.68 1011.64 1011.64 1011.64 1011.48 1011.36 1011.28 1011.20 1011.08 1010.92 1010.76 1010.60 1010.44 1010.28 1010.16 1010.08 1009.92 1009.76 1009.64 1009.48 1009.28 1009.04 1008.88 1008.72 1008.52 1008.36 1008.16 1008.00 1007.92 1007.76 1007.64 1007.48 1007.36
1013.04 1013.04 1013.04 1013.08 1013.08 1013.08 1013.04 1013.04 1013.00 1013.04 1013.04 1013.12 1013.16 1013.16 1013.16 1013.12 1013.04 1013.00 1012.92 1012.88 1012.76 1012.68 1012.64 1012.52 1012.40 1012.32 1012.24 1012.20 1012.08 1012.00 1011.88 1011.76 1011.72 1011.72 1011.72 1011.68 1011.64 1011.64 1011.60 1011.56 1011.44 1011.28 1011.12 1011.00 1010.84 1010.68 1010.48 1010.32 1010.12 1010.00 1009.84 1009.72 1009.56 1009.40 1009.28 1009.16 1008.92 1008.72 1008.52 1008.36 1008.20 1008.08 1007.92 1007.76 1007.64 1007.56 1007.48 1007.36 1007.24
Wind_Speed
9 7 5 3 3 3 4 4 4 4 4 4 4 3 3 3 3 3 3 3 3 3 2 2 2 2 3 3 3 3 3 3 3 4 4 4 5 5 5 6 6 6 6 6 6 6 5 5 5 4 4 4 5 5 5 5 5 6 6 7 7 7 8 9 9 10 10 11 9
7 3 4 6 6 6 5 4 4 4 4 4 3 3 3 3 3 3 3 3 3 3 2 2 3 3 3 4 4 4 4 5 5 6 6 6 6 6 6 6 6 6 6 6 6 5 5 5 5 4 4 4 4 5 5 5 5 6 8 9 7 7 7 8 9 9 10 10 9
4 6 7 7 7 7 6 4 4 4 4 4 4 3 3 3 3 3 3 3 3 3 3 2 3 3 4 5 5 5 6 6 7 7 7 7 6 7 7 6 7 7 6 6 6 5 5 5 5 4 4 4 5 5 6 6 6 7 8 9 7 6 6 7 8 8 8 7 8
8 8 8 7 8 8 7 5 5 5 5 4 4 4 3 3 3 3 3 3 3 3 3 3 3 4 5 6 6 7 7 7 8 8 8 7 7 7 7 7 7 7 7 6 6 6 6 6 5 4 5 6 6 7 6 6 6 6 6 7 6 6 6 7 6 6 6 7 7
7 7 7 7 8 8 8 6 6 6 5 4 4 4 3 3 3 3 3 3 3 3 4 4 4 4 5 6 7 8 8 9 9 8 7 7 7 7 7 7 7 7 7 7 7 7 7 7 5 5 5 6 6 6 6 7 7 7 6 5 5 6 6 6 6 6 6 6 6
6 7 7 7 8 8 7 6 7 7 6 5 5 4 4 3 3 3 3 3 3 4 5 5 4 5 5 6 7 8 8 9 8 7 6 6 6 6 7 7 7 7 7 7 7 8 7 7 5 5 5 5 6 6 7 8 8 7 7 6 6 6 6 6 6 6 6 7 8
8 9 9 9 9 9 8 7 7 7 6 5 6 5 4 3 4 4 4 4 4 4 4 4 4 5 6 6 7 8 8 8 7 6 6 6 6 7 7 7 8 8 8 8 8 8 7 7 6 5 5 5 5 6 7 8 7 7 7 7 6 6 6 7 6 6 7 9 10
9 10 10 10 10 10 9 9 8 7 6 5 5 5 5 5 5 5 4 4 3 3 4 4 5 6 7 7 7 8 8 8 7 6 6 6 7 8 8 8 8 8 8 8 8 8 8 7 5 5 5 5 5 6 7 8 8 8 8 8 7 6 6 6 6 6 7 9 11
9 10 10 10 10 9 9 9 8 7 6 5 5 5 6 6 5 4 3 2 3 4 5 5 6 7 8 8 8 8 7 7 7 7 7 7 8 8 8 8 8 8 8 8 8 8 8 7 6 5 6 6 6 6 7 8 9 9 9 9 8 7 7 7 7 8 9 10 11
10 10 10 10 9 9 9 8 7 7 6 5 5 6 5 4 2 1 1 2 4 5 6 6 7 7 8 9 8 8 7 6 7 8 8 8 9 9 9 8 8 9 8 8 8 8 8 7 7 7 6 6 7 8 9 9 10 10 10 8 8 9 10 9 9 10 10 11 12
11 11 10 10 10 9 9 7 6 5 5 5 5 4 3 2 1 2 3 4 5 6 7 7 7 8 8 8 7 7 7 7 7 8 9 9 9 9 9 9 9 10 10 9 8 8 7 7 8 8 9 8 9 9 10 10 11 11 11 9 10 11 11 11 11 11 11 11 12
11 11 11 10 10 9 7 6 5 5 5 5 3 2 2 2 3 4 5 6 7 7 7 7 7 7 7 7 7 7 7 7 8 8 9 9 9 10 10 10 10 11 11 11 9 8 7 8 9 10 11 11 9 9 10 11 11 12 12 12 12 12 12 12 12 11 11 11 12
11 11 11 11 10 8 6 5 4 4 4 3 2 2 3 3 4 5 6 6 7 7 6 6 6 7 7 7 7 7 7 8 8 8 9 9 9 10 10 11 11 11 11 10 9 8 9 9 11 12 13 13 11 10 10 12 12 12 13 13 13 13 13 13 13 12 12 12 13
10 10 10 10 9 7 5 5 4 3 3 3 3 3 3 3 4 4 5 5 6 6 6 6 6 6 6 7 8 8 8 8 9 9 10 10 10 10 11 11 11 11 11 10 9 10 10 11 12 13 14 14 13 12 12 12 12 13 13 13 14 14 14 14 13 13 13 13 13
9 9 9 8 7 6 4 4 3 3 3 3 3 3 3 3 3 4 4 4 5 5 5 5 6 6 7 8 8 9 9 9 10 10 11 11 11 11 11 11 12 12 12 11 10 10 11 12 13 13 14 14 14 14 14 13 13 13 13 13 14 14 14 14 14 13 13 13 13
9 8 7 7 6 5 4 3 3 2 2 2 2 2 2 3 3 3 4 4 4 4 5 6 7 7 7 7 8 8 9 9 10 10 11 11 11 12 12 12 13 13 13 13 12 11 11 12 12 12 13 14 14 14 14 14 14 14 14 14 14 14 14 14 14 14 14 13 14
8 7 6 6 5 4 3 3 2 2 2 2 2 2 2 3 3 3 4 4 4 5 5 7 7 6 6 7 7 8 8 9 10 10 11 11 12 12 13 13 13 13 14 14 14 13 13 13 12 12 12 13 13 14 14 14 14 13 14 14 14 14 14 14 14 14 14 14 14
7 6 5 5 4 4 3 3 3 3 3 3 3 3 3 3 3 3 4 4 5 5 6 6 6 6 7 7 7 7 8 9 10 10 11 12 12 13 14 14 14 14 14 14 14 14 15 15 14 13 12 12 13 13 13 13 13 13 14 14 14 14 14 14 14 13 13 14 14
6 5 5 4 4 3 3 3 3 3 3 3 3 3 3 3 4 4 4 5 5 6 6 7 6 7 7 8 8 7 7 9 10 11 12 12 13 13 14 14 14 14 14 15 15 15 15 14 14 13 13 13 13 13 13 13 13 13 13 13 14 14 14 14 14 14 14 15 15
5 4 4 3 3 3 3 3 3 3 2 2 2 2 3 3 4 4 5 6 6 6 6 7 7 7 8 8 9 8 8 8 9 11 12 12 13 13 14 14 15 15 15 15 14 14 14 14 14 13 13 13 13 13 13 13 13 13 13 13 13 14 14 15 15 15 15 15 14
4 3 2 2 2 2 2 2 2 2 2 1 2 2 3 4 4 5 6 7 7 7 7 8 8 8 9 9 9 9 9 8 9 10 11 12 13 14 14 14 14 14 14 14 14 14 14 14 14 14 13 13 13 14 13 13 13 13 13 13 13 14 15 15 14 14 13 13 12
2 1 1 1 1 1 1 1 1 1 1 2 2 3 4 4 5 6 6 7 7 7 8 8 9 9 9 9 10 10 9 8 9 10 11 11 12 13 13 13 14 14 14 15 14 14 14 14 14 13 13 13 13 13 13 13 13 13 13 14 14 14 14 13 12 11 11 11 11
1 0 1 1 1 1 0 0 0 1 2 3 4 4 5 5 6 6 7 7 7 8 8 8 8 9 9 9 10 10 10 10 10 11 11 12 12 13 13 13 13 14 14 13 13 13 13 12 12 12 12 12 12 12 12 12 12 12 13 13 13 13 12 11 10 9 9 10 10
1 1 1 1 1 0 0 1 1 2 3 4 5 5 6 6 6 6 7 7 8 8 8 8 8 8 9 10 10 10 11 11 12 12 12 13 13 13 13 13 12 12 12 11 11 11 11 10 10 10 11 11 11 11 11 12 12 12 12 12 12 11 11 11 10 11 11 12 12
2 2 1 1 1 1 1 1 2 3 4 6 7 7 7 6 6 6 7 7 7 8 8 8 8 8 9 9 10 10 11 11 12 13 13 13 13 12 12 11 11 10 10 9 12 13 13 11 10 10 10 10 11 11 11 11 12 12 11 11 11 11 12 12 13 14 14 15 15
2 2 2 1 1 1 1 2 3 5 6 7 7 8 8 8 7 7 7 7 8 8 8 9 8 8 8 8 9 10 10 10 11 12 12 12 12 12 11 10 10 9 9 10 12 14 15 15 13 12 10 9 9 9 10 10 10 10 10 10 11 11 12 13 14 14 15 15 16
3 3 2 2 2 2 3 4 5 6 7 8 8 8 9 9 8 8 8 8 8 8 8 8 8 7 7 7 9 10 10 10 10 11 12 12 12 12 12 11 10 9 9 11 13 14 15 14 14 12 10 8 7 6 7 7 8 9 9 9 10 11 12 13 14 15 16 16 17
3 2 2 2 2 3 4 5 6 7 8 8 9 9 9 9 9 9 9 9 9 9 8 7 6 5 5 5 7 9 10 10 10 10 11 11 12 12 12 11 10 9 10 13 14 14 14 13 12 10 8 6 5 5 6 7 8 8 9 9 10 11 12 13 14 14 15 16 16
2 2 2 3 3 5 6 7 8 8 8 9 9 9 8 8 9 9 10 10 10 9 7 6 5 5 5 6 7 9 10 11 10 10 11 11 12 12 12 11 11 11 12 14 15 15 14 13 11 10 8 7 6 5 6 7 8 9 9 9 10 11 12 13 13 13 14 15 15
2 3 3 4 5 6 7 8 8 8 8 8 8 8 8 8 9 10 11 11 11 9 8 7 6 6 7 8 8 9 10 10 10 10 11 11 11 11 11 11 11 11 12 14 15 15 14 13 12 11 10 10 8 7 7 8 9 10 10 10 11 13 14 14 15 15 15 14 15
4 4 5 6 7 7 8 8 8 7 7 6 7 8 9 9 10 11 11 10 9 9 9 8 9 9 10 10 10 10 11 11 11 11 11 11 11 12 12 12 12 12 13 14 15 14 13 12 12 12 12 12 10 9 8 9 10 11 11 11 12 14 15 15 15 16 16 16 16
6 6 7 7 8 8 8 8 7 6 6 6 7 8 9 10 11 11 10 9 9 9 10 10 10 10 11 11 11 11 12 11 11 11 11 11 12 12 12 12 12 12 12 14 14 13 13 13 13 14 15 15 12 11 10 11 11 12 12 13 15 16 16 15 14 16 17 18 17
7 7 8 8 8 7 7 6 6 5 6 6 7 9 10 10 10 10 10 9 9 9 10 10 10 10 11 11 12 12 12 11 11 11 12 12 12 13 13 12 11 11 12 13 13 13 13 14 15 16 17 17 14 12 11 12 11 11 12 13 14 15 16 17 16 17 17 18 18
7 8 8 8 7 6 5 5 5 5 6 7 8 9 9 10 10 10 9 8 8 8 8 8 9 9 9 10 10 11 11 10 11 11 11 12 12 13 13 12 9 10 12 13 14 14 15 16 17 18 19 18 14 12 12 13 12 12 12 14 15 15 16 17 17 18 18 19 18
8 8 8 7 6 5 5 5 6 6 7 8 9 9 9 9 10 10 9 8 8 7 8 8 8 9 9 10 9 10 10 11 11 11 11 11 11 12 13 12 11 12 13 14 15 15 16 18 19 19 19 17 13 11 11 13 13 13 14 15 16 16 17 17 17 17 17 18 18
7 6 5 4 4 4 5 5 6 7 8 8 8 9 9 9 9 9 8 8 8 8 8 9 9 9 9 10 9 9 9 10 11 11 11 10 11 11 12 13 12 13 14 15 16 17 18 19 20 20 19 16 12 10 11 11 11 12 14 15 15 16 16 16 16 16 16 16 17
4 3 3 3 3 4 5 6 7 8 8 8 8 8 8 9 8 8 8 7 8 9 9 9 10 10 10 9 9 9 9 10 11 11 11 10 10 11 11 12 12 13 13 15 17 18 20 21 21 21 19 14 12 11 11 10 10 11 12 14 14 15 15 15 15 15 16 16 17
1 1 1 2 3 5 6 6 7 8 8 8 8 8 8 8 7 7 7 7 7 8 9 9 10 11 11 10 10 11 11 11 10 10 10 10 10 10 10 12 12 12 13 16 18 20 21 22 22 22 19 14 12 11 11 10 10 10 11 12 12 13 13 12 12 13 14 16 18
3 3 4 5 5 6 7 8 8 8 8 8 8 8 8 8 7 7 7 7 7 8 9 9 10 11 11 11 11 11 11 11 10 10 9 9 9 10 11 12 13 13 14 17 19 21 22 22 23 23 20 16 13 11 10 9 10 11 11 11 11 12 12 12 11 11 12 15 18
4 5 6 6 7 7 8 9 9 8 8 7 8 8 8 8 7 7 7 7 7 8 9 10 11 11 11 11 11 11 11 11 10 10 9 9 10 11 12 12 13 14 15 17 20 21 22 23 23 23 21 16 13 11 9 9 10 10 11 11 11 11 11 11 10 10 10 11 13
5 6 7 7 7 8 9 10 9 8 7 7 8 8 7 7 7 7 7 7 8 9 9 9 11 12 12 11 11 11 11 11 10 10 9 9 10 11 12 11 13 14 15 16 19 20 22 22 23 23 21 16 12 10 9 8 9 10 11 11 10 9 9 9 8 8 7 8 8
Wind_Direction
229 222 212 175 126 100 87 79 79 79 80 79 80 80 81 79 76 74 73 73 70 65 59 52 46 38 29 19 13 9 5 359 345 333 320 309 302 299 296 293 289 285 281 278 277 276 275 274 274 273 273 273 273 273 273 272 273 273 273 272 272 272 272 272 272 272 271 270 269
230 192 118 103 104 102 99 96 93 92 91 90 84 83 83 82 79 78 77 76 75 70 63 53 41 25 10 359 357 353 347 339 327 319 311 304 298 294 291 286 282 278 275 273 273 273 273 272 272 272 272 272 272 272 272 271 271 272 272 272 271 272 272 272 271 271 271 271 270
112 107 108 113 113 112 110 108 104 101 98 95 90 85 83 84 83 81 78 76 72 66 56 42 23 5 352 344 342 337 331 324 315 308 301 294 288 284 282 280 279 277 277 277 276 276 276 275 275 275 274 274 273 273 273 272 271 271 271 271 271 271 271 271 271 272 272 271 271
103 110 115 114 115 115 114 115 113 108 103 97 93 88 84 81 80 78 75 69 60 49 33 12 358 347 339 332 325 318 312 306 300 294 287 280 277 276 277 278 279 280 281 281 281 280 279 279 278 276 275 275 274 273 273 273 271 270 270 270 270 271 270 271 272 273 273 272 272
103 107 109 109 110 111 111 115 116 111 104 99 97 93 89 85 86 85 78 64 40 19 4 353 344 335 326 318 309 303 297 293 287 281 274 270 270 272 275 277 278 279 280 280 279 279 279 278 277 275 273 273 272 271 270 270 270 270 269 269 270 270 271 272 272 272 272 273 272
94 96 98 99 101 103 106 110 107 104 100 100 101 100 99 99 94 80 59 36 17 2 352 343 332 320 309 300 295 291 288 283 277 271 266 267 269 272 273 274 275 276 277 277 277 276 276 277 276 274 272 271 270 269 269 270 269 269 269 269 268 269 270 271 272 272 273 273 273
102 102 101 101 100 102 103 102 99 97 97 99 103 104 101 88 66 47 31 19 6 351 337 323 308 298 291 288 285 283 279 275 271 269 269 272 272 272 272 273 273 274 274 274 275 276 276 275 275 274 273 271 271 270 269 269 268 268 268 268 267 268 268 269 271 272 273 273 274
111 110 109 108 107 105 104 103 101 100 101 104 105 99 85 63 48 35 21 4 343 321 304 293 286 283 281 280 278 275 272 270 270 271 273 273 273 272 271 271 271 271 271 271 272 273 273 272 271 271 271 271 270 269 267 267 266 267 267 268 268 268 268 269 271 272 272 273 274
118 116 114 113 110 109 108 107 108 109 110 107 94 78 65 54 43 28 5 333 303 289 282 276 274 273 272 271 268 266 263 264 266 268 268 267 267 268 268 268 268 268 268 268 268 269 269 269 268 267 266 266 267 267 267 266 267 268 269 270 270 270 270 270 270 271 272 273 274
124 121 118 115 113 113 113 112 113 113 108 94 80 70 64 59 49 12 293 270 265 262 261 260 261 262 263 262 260 258 257 258 261 263 264 264 264 266 267 268 269 271 272 271 271 271 271 271 271 270 269 268 269 270 270 270 271 271 271 271 272 272 272 272 272 272 273 273 274
127 125 122 120 120 120 119 119 116 109 100 89 83 82 85 98 186 229 238 243 247 249 250 250 252 254 255 256 255 255 255 256 258 261 265 267 269 272 274 276 278 279 280 280 279 279 278 277 276 275 275 274 274 274 274 274 273 273 273 272 272 273 273 273 272 273 273 273 273
128 127 126 126 127 127 126 123 115 107 103 102 108 125 160 195 215 227 234 239 244 247 249 249 252 255 258 261 260 261 262 264 267 270 273 277 279 282 283 284 285 285 285 285 284 284 282 280 279 279 278 277 276 275 274 274 274 273 273 273 273 272 273 273 272 272 272 272 273
129 130 130 131 131 132 130 120 111 108 112 122 147 176 197 211 221 228 235 240 244 248 252 255 260 265 269 272 273 273 274 276 279 282 284 286 287 287 288 288 287 287 287 286 285 283 282 280 279 279 278 278 276 274 273 273 273 273 274 274 273 273 272 272 272 272 272 272 273
130 132 133 132 133 132 128 118 115 119 132 152 177 196 209 219 226 231 237 242 248 254 260 265 270 273 275 277 278 280 282 284 285 287 288 288 288 289 289 288 288 287 286 285 283 282 280 279 278 278 277 277 275 274 273 272 272 272 272 273 272 272 272 272 272 272 272 272 272
131 132 132 130 129 127 125 124 126 136 153 171 189 204 216 226 234 238 244 250 257 263 269 273 274 275 276 278 280 282 284 285 287 287 288 288 288 288 288 287 287 286 286 285 283 282 280 280 279 278 277 277 276 275 274 273 272 272 272 272 272 272 272 272 273 273 273 273 273
131 131 130 126 124 124 128 134 140 153 167 181 196 211 223 232 240 248 254 260 265 268 270 272 274 275 277 278 281 283 284 285 286 286 287 287 287 287 287 287 287 287 287 286 286 284 282 281 280 279 278 278 278 277 277 276 275 274 273 273 273 274 274 274 275 275 275 275 275
131 130 128 126 128 134 144 154 160 167 177 191 203 213 223 231 240 249 256 261 264 266 268 270 273 275 278 279 281 282 283 284 284 284 285 285 286 286 286 286 286 287 287 287 286 285 284 283 281 280 279 279 279 279 279 279 278 277 277 276 276 276 276 277 277 277 277 278 277
132 131 130 133 142 153 165 175 179 184 190 198 206 213 219 229 239 248 254 260 264 267 269 271 273 274 276 278 279 279 280 281 281 282 282 283 284 284 285 285 286 286 286 286 285 285 284 284 283 282 281 281 281 281 281 280 280 279 279 279 278 278 278 278 278 278 278 277 276
137 138 141 150 161 174 183 190 193 196 199 204 210 218 227 237 246 254 260 264 268 270 272 274 274 275 276 277 277 277 277 278 279 280 281 282 282 283 284 285 285 286 286 286 285 285 284 284 284 283 283 282 282 281 280 280 280 279 279 279 278 278 278 278 277 276 276 275 276
145 150 157 168 180 190 197 200 201 203 206 210 223 239 252 259 265 269 273 275 276 276 276 277 277 277 277 277 277 277 276 276 278 280 281 282 283 284 285 285 286 286 286 286 285 285 285 285 284 284 283 282 282 281 280 280 279 278 277 277 276 276 275 275 275 275 276 277 279
151 160 173 192 202 206 208 206 207 211 220 242 267 278 281 282 280 280 279 280 281 280 279 278 278 277 278 278 278 279 279 279 280 282 283 284 284 284 285 285 286 286 285 285 284 284 283 283 282 281 281 280 279 278 278 277 276 275 274 274 273 272 272 273 275 277 279 281 282
154 170 204 235 234 229 220 211 214 250 294 302 298 293 288 283 281 279 279 280 280 279 278 277 278 278 279 280 282 282 283 283 283 283 284 284 283 283 283 284 284 284 283 282 282 281 281 280 279 278 277 277 277 276 276 276 276 276 275 275 274 274 274 276 277 278 278 279 279
148 225 273 276 265 251 209 128 331 318 307 298 289 283 279 277 277 278 280 281 280 280 279 280 280 281 282 283 285 285 286 285 284 283 282 282 282 282 282 282 282 281 281 280 280 279 279 279 278 278 278 278 279 279 280 280 281 281 282 282 282 283 283 283 281 279 278 278 280
1 329 317 307 296 311 1 3 328 304 291 284 279 277 276 277 281 283 284 285 284 283 283 283 283 284 285 285 286 285 285 285 284 283 282 281 281 281 281 281 280 280 279 278 277 276 276 277 278 279 279 279 279 280 280 281 281 282 283 285 287 288 288 287 285 284 283 283 283
349 332 319 310 316 335 348 336 304 288 281 277 277 279 282 285 287 288 288 287 287 286 286 285 285 285 286 286 285 284 284 283 282 282 281 281 280 279 279 279 278 278 277 276 274 274 273 272 273 275 277 277 277 277 277 277 278 280 282 284 286 286 285 284 283 282 281 280 279
344 327 315 311 317 322 314 297 283 276 273 274 278 282 286 289 289 290 290 290 290 288 288 287 286 285 284 284 283 282 281 280 279 279 280 280 279 279 278 278 278 277 277 276 275 274 274 273 272 272 273 276 278 280 282 282 283 284 285 286 284 283 281 280 278 276 275 274 272
338 324 316 316 314 302 289 280 273 271 272 275 280 284 287 290 292 294 294 293 291 289 287 286 285 283 281 281 280 280 279 279 279 279 280 281 281 282 281 281 280 279 278 278 277 278 277 277 276 277 279 284 289 291 291 290 290 288 286 283 280 278 276 275 275 274 273 271 269
329 321 314 312 299 286 277 272 270 271 274 278 281 285 289 293 295 295 294 291 289 288 286 285 283 282 282 282 282 282 283 283 284 284 284 284 283 283 283 283 283 282 282 282 284 285 286 287 289 293 299 307 305 298 293 289 287 285 282 279 277 275 274 274 274 273 273 271 269
310 304 296 289 277 269 266 265 267 270 274 278 283 287 292 295 295 293 291 289 288 288 288 288 289 289 289 289 288 287 287 287 286 286 285 285 284 284 285 286 287 288 289 291 293 295 297 300 305 311 317 319 311 301 294 290 287 285 283 281 279 278 277 275 274 272 271 269 268
280 273 266 261 258 257 257 259 263 268 273 279 285 290 293 293 291 289 289 289 289 291 293 296 296 295 293 290 290 289 288 287 287 287 287 288 289 290 292 293 294 295 295 297 298 299 302 307 312 315 316 315 308 300 294 290 288 287 285 284 281 278 276 273 271 269 268 266 266
256 252 249 248 249 251 254 257 262 268 276 283 289 291 292 291 289 289 289 291 294 296 298 298 296 294 292 291 290 290 290 290 291 292 293 295 295 296 297 297 297 296 296 296 298 301 305 311 313 313 311 309 305 300 295 292 289 286 283 279 276 273 270 268 267 265 265 264 264
244 245 245 245 247 250 254 260 267 276 283 289 291 291 290 289 288 290 292 295 298 299 298 297 295 294 293 293 293 293 294 295 296 297 298 298 298 298 298 297 296 295 295 296 299 303 308 311 310 309 307 306 302 298 294 290 286 281 276 272 269 267 266 264 264 263 263 263 262
242 243 245 246 248 252 258 267 276 284 289 290 289 287 287 287 289 292 295 297 298 298 297 296 295 295 295 296 296 297 297 297 298 298 298 298 298 298 297 296 296 295 295 297 301 305 308 309 308 306 304 303 300 295 289 284 279 275 271 268 266 265 263 262 262 261 261 261 261
239 241 244 247 253 261 271 280 284 287 288 287 285 285 285 288 292 294 296 297 297 297 296 296 297 297 297 297 297 298 298 298 298 299 299 299 299 298 298 297 295 295 296 298 302 305 307 307 305 303 302 300 296 290 284 279 274 271 268 266 265 263 262 261 260 260 259 259 259
233 237 242 250 261 272 280 282 284 284 284 283 283 285 287 291 294 296 298 299 299 299 299 299 298 298 298 297 297 297 298 298 299 299 300 300 300 299 298 296 295 296 298 301 305 306 306 305 303 301 298 296 291 284 279 275 272 269 267 265 264 263 262 261 260 259 259 258 258
229 229 232 242 257 268 275 278 281 283 283 283 284 288 292 295 297 299 301 303 303 303 302 301 300 299 298 298 298 297 298 299 300 301 301 301 300 299 298 297 298 300 303 306 307 306 305 302 300 297 295 292 286 280 276 273 271 268 266 265 264 263 262 261 260 259 259 258 258
223 216 213 225 254 270 278 283 286 287 288 289 291 295 298 301 303 305 307 308 306 304 302 301 300 299 298 298 299 299 300 301 302 302 301 300 300 300 301 301 302 304 306 308 306 304 302 299 297 294 292 288 283 278 275 272 269 267 266 265 264 263 262 262 261 260 259 258 257
246 263 273 275 287 293 296 296 295 295 295 296 300 303 306 309 309 309 310 309 306 303 302 300 299 299 299 300 300 301 302 302 302 301 301 301 302 304 306 307 307 306 306 306 304 301 299 296 294 291 289 284 281 277 274 271 268 266 265 265 264 264 263 262 261 260 259 257 257
355 337 323 315 311 309 307 303 300 299 300 304 308 311 313 314 311 310 308 306 303 301 300 300 300 300 301 303 303 303 302 302 301 301 302 305 308 311 311 310 307 305 304 303 300 298 296 293 291 289 287 283 280 276 273 270 268 267 266 266 267 266 265 264 263 262 261 259 259
347 335 327 321 316 311 307 304 303 305 308 313 316 316 315 313 310 307 305 302 301 301 301 301 302 303 304 304 304 303 303 302 303 305 307 310 312 313 312 308 305 303 301 299 297 295 293 291 289 288 286 283 280 277 273 271 269 268 267 267 268 268 268 266 265 265 265 265 265
340 331 325 318 313 309 307 306 309 313 317 321 320 317 314 310 307 305 304 303 303 304 304 303 304 304 304 304 303 303 303 304 306 309 311 313 313 312 310 306 303 300 298 296 294 292 291 290 289 288 287 285 282 280 277 274 272 270 270 270 270 271 272 272 271 270 270 272 272